Theta_e
350 350 349 351 350 351 351 350 351 352 354 353 353 351 352 353 353 351 348 350 348 348 349 349 347 350 348 348 348 348 345 342 334 339 344 346 344 345 348 355 357 353 349
350 350 349 350 352 349 350 350 352 351 353 354 352 352 352 353 351 351 351 350 349 346 346 348 348 353 347 348 349 348 346 347 343 339 343 345 343 348 348 351 357 356 352
347 350 349 349 350 349 348 351 352 351 351 354 354 352 351 352 352 352 350 350 351 350 352 349 349 349 348 347 348 347 347 350 346 343 342 344 345 349 347 346 346 349 352
345 346 345 343 345 347 350 349 351 351 351 351 350 352 353 353 353 352 353 351 352 351 352 352 353 352 348 348 347 346 347 342 345 343 343 342 342 348 347 345 348 348 348
344 344 342 341 342 347 347 349 350 351 351 350 351 351 352 342 335 334 341 352 350 350 350 353 354 350 347 346 348 347 346 343 343 341 341 340 339 341 343 346 345 347 349
341 343 343 342 339 345 347 346 347 348 349 350 349 347 338 334 327 329 334 345 350 348 348 350 349 342 343 342 340 338 341 340 338 341 341 340 338 344 346 345 345 344 341
340 343 343 339 338 343 347 347 348 344 344 346 345 336 327 322 320 321 329 340 348 348 349 350 350 340 335 339 341 344 341 336 338 341 339 341 343 345 347 344 342 343 344
339 340 340 340 339 343 344 343 341 343 341 343 338 331 323 317 316 318 324 337 347 345 345 341 336 329 325 327 340 345 346 337 336 343 336 339 342 344 345 346 346 346 347
338 339 341 341 337 337 337 339 340 338 337 336 333 327 318 311 314 318 334 345 344 336 329 335 329 323 320 322 332 334 337 333 334 329 329 329 330 331 334 342 341 339 337
337 338 340 340 338 336 337 338 337 334 331 327 323 318 316 310 312 314 322 331 333 330 324 319 320 317 315 315 322 332 318 320 321 325 330 333 335 337 337 344 342 336 335
331 335 336 336 335 335 336 334 330 330 327 323 318 319 316 311 309 310 312 317 320 333 328 321 317 314 312 312 312 325 318 317 321 323 330 333 330 330 332 333 334 336 332
326 328 330 333 335 337 335 333 331 328 324 320 318 316 313 310 310 309 310 311 315 321 318 315 314 310 309 309 313 317 315 318 325 328 323 321 321 323 327 326 326 323 324
323 322 324 326 321 324 328 333 333 331 326 320 318 316 314 317 311 308 307 311 313 308 308 310 312 311 311 315 317 318 320 322 320 318 316 316 318 320 320 320 321 320 319
318 320 322 315 308 305 308 306 304 303 309 313 324 320 316 305 301 298 299 302 305 303 302 307 315 315 315 315 316 317 315 314 312 312 312 313 313 312 312 314 315 316 315
319 319 319 317 307 300 298 300 296 294 296 303 303 302 309 301 294 295 294 294 294 296 298 311 310 308 307 307 308 310 310 309 309 308 307 307 307 308 309 311 310 309 309
315 318 315 317 312 310 303 298 298 296 296 295 295 297 294 296 295 295 294 294 295 297 301 307 305 305 305 305 305 305 306 307 307 305 304 304 306 307 306 305 305 304 303
310 308 311 314 316 314 311 307 299 296 297 295 295 295 295 295 294 294 293 294 297 299 303 305 305 304 303 303 303 303 302 302 303 304 304 304 304 304 302 301 301 301 300
303 306 303 306 309 312 309 307 302 298 296 295 296 296 295 294 294 294 294 296 302 300 303 302 302 302 302 301 301 300 301 301 300 300 299 299 299 298 298 297 297 296 296
308 304 303 305 301 302 305 306 304 303 303 298 296 297 297 296 295 295 295 302 300 300 300 300 300 300 300 300 299 298 298 298 298 297 297 297 296 296 294 295 295 297 296
302 307 306 301 302 302 302 302 302 306 302 299 298 299 297 297 299 300 301 301 299 299 299 299 298 298 298 297 297 296 296 296 295 295 294 294 293 293 293 293 293 293 293
304 300 307 301 301 301 302 303 302 302 303 302 299 299 298 300 300 301 300 299 299 298 298 298 297 296 296 296 295 295 294 294 294 293 292 291 291 291 291 292 292 292 293
304 300 299 299 301 302 301 302 301 300 300 297 296 295 297 298 302 302 301 299 299 299 299 298 296 296 295 294 294 294 293 292 291 290 290 290 289 289 290 290 290 291 291
304 301 298 297 298 303 299 301 300 300 301 299 297 296 297 299 300 301 300 301 301 299 298 298 297 296 295 294 294 293 291 289 289 289 288 288 288 288 289 289 289 290 291
304 301 299 298 298 298 298 298 298 298 301 300 299 299 298 301 300 301 300 299 299 299 298 297 296 296 295 294 293 291 289 288 288 288 291 290 289 289 289 288 288 289 290
308 305 300 299 298 299 299 298 297 299 299 301 300 300 300 301 300 300 300 298 298 297 297 296 295 295 294 293 292 289 287 288 289 289 291 290 289 289 288 289 289 290 291
307 304 302 299 299 299 299 298 298 299 298 298 299 300 301 300 300 300 299 299 297 297 297 296 296 295 294 293 291 289 286 287 288 286 288 288 289 289 289 290 290 291 292
Wind_Speed
9 8 7 6 7 5 4 4 1 2 5 6 6 6 5 4 4 3 2 1 2 0 1 1 3 4 3 3 3 3 4 1 2 4 3 3 5 6 7 6 6 6 5
8 8 7 7 6 6 5 6 4 3 3 6 4 4 4 3 4 4 4 1 3 3 5 2 3 2 1 1 2 3 3 2 2 3 3 4 2 8 3 5 4 6 5
6 8 7 7 6 7 6 6 5 5 6 5 6 6 5 4 3 4 3 2 3 4 5 4 5 3 3 3 2 1 2 3 1 1 4 2 2 3 4 4 5 5 6
6 7 7 5 3 1 5 5 7 6 5 5 5 5 5 5 2 3 4 4 4 4 4 4 5 3 3 4 4 3 2 2 2 3 3 3 2 3 2 3 8 4 6
5 6 7 4 1 4 6 6 5 6 6 5 5 4 3 7 5 5 5 5 6 5 4 5 3 5 2 3 2 3 2 1 1 2 3 2 3 4 5 3 3 4 5
5 8 7 5 7 2 3 9 5 1 4 5 5 3 6 6 6 6 6 5 4 1 4 4 6 9 8 10 4 1 5 2 2 1 2 3 4 2 2 3 3 4 5
5 5 7 8 8 8 5 2 6 6 3 3 7 7 7 4 8 5 3 5 2 3 2 4 6 6 6 5 6 8 3 1 4 3 3 3 4 2 3 3 2 3 4
6 6 5 5 4 5 6 4 1 4 1 5 8 7 6 4 9 9 7 4 2 6 6 8 7 5 5 5 5 6 7 5 5 1 0 4 4 5 3 2 4 5 4
5 6 4 5 5 5 6 4 4 6 6 6 7 6 6 6 10 9 5 4 7 8 6 6 7 6 6 7 6 5 5 4 5 7 8 9 10 10 4 1 4 4 4
5 5 6 6 6 7 5 5 4 6 8 6 6 7 7 7 12 14 9 5 6 6 5 6 9 6 6 8 5 4 5 4 7 10 9 9 8 7 6 2 2 2 2
4 5 6 5 6 5 6 5 5 6 6 7 7 5 6 6 9 15 12 6 3 6 4 3 3 6 7 6 4 3 2 5 6 4 5 5 7 7 6 5 6 5 5
5 8 7 6 5 4 6 5 6 6 6 5 6 4 4 5 8 11 11 11 8 6 4 2 3 8 10 9 6 8 6 5 4 5 5 5 5 7 6 6 6 6 3
8 8 9 9 8 8 6 4 5 4 4 4 5 5 4 2 4 11 12 11 12 5 3 4 7 8 10 7 12 17 12 8 6 8 6 6 6 6 8 10 9 9 6
6 6 6 9 8 8 7 7 6 6 4 4 3 4 4 2 3 5 5 5 8 7 8 6 7 8 10 8 8 8 7 6 6 5 4 4 5 7 8 7 7 9 5
5 4 5 7 7 7 8 5 6 4 3 2 4 3 4 2 1 3 3 3 4 4 7 1 4 5 5 5 5 5 5 5 7 4 5 5 4 5 6 7 8 7 6
5 4 3 4 5 5 5 4 9 7 7 8 9 4 3 6 4 3 5 6 5 5 2 2 3 4 5 5 5 4 6 8 5 5 5 5 5 7 6 5 6 5 6
5 4 4 5 6 6 5 4 4 2 5 8 8 9 8 4 6 7 8 10 6 3 3 4 5 6 5 6 6 6 5 5 6 6 7 8 8 7 8 7 7 7 8
2 2 2 2 6 5 4 4 4 5 4 2 6 5 5 6 7 8 7 5 4 4 4 7 6 6 7 6 6 5 5 6 6 6 6 5 6 6 7 8 8 8 8
1 3 0 2 2 3 5 6 5 6 5 4 3 2 2 5 6 9 3 3 4 5 5 7 6 5 5 5 5 5 5 5 5 5 5 7 7 6 5 5 6 9 11
2 3 5 3 1 2 1 1 1 8 7 6 4 4 2 3 3 2 5 5 6 6 5 5 5 5 5 5 4 5 5 5 4 6 5 5 4 4 4 5 5 6 6
3 2 3 1 1 2 1 2 2 4 5 5 4 3 8 4 2 4 5 5 5 5 5 5 5 5 4 5 5 5 5 5 6 6 5 4 4 4 4 4 4 6 7
4 5 4 4 3 1 2 1 2 2 7 7 4 4 9 3 4 5 5 4 5 5 4 5 5 4 5 4 3 4 5 5 5 4 4 4 4 4 4 5 5 7 9
4 5 5 4 3 2 2 1 1 1 6 5 4 5 4 3 5 6 6 5 5 4 4 5 5 5 4 4 4 5 5 4 3 3 4 4 6 6 7 7 8 8 8
6 5 6 5 4 4 4 4 2 1 4 6 5 4 5 4 5 6 6 5 5 5 5 5 4 6 5 5 4 5 4 3 3 3 4 5 6 9 8 9 8 10 8
7 6 5 6 6 6 5 5 4 4 4 4 5 5 5 5 6 5 7 6 5 5 5 5 4 7 7 6 5 7 4 6 4 3 2 4 7 9 9 7 7 9 11
5 5 4 3 5 6 6 6 5 5 6 5 4 5 5 5 6 6 6 6 5 5 6 5 6 8 8 6 8 6 2 2 4 3 3 4 5 5 6 8 11 9 12
Wind_Direction
147 154 166 181 174 194 195 211 250 150 144 170 177 188 205 201 175 162 179 272 338 195 343 280 311 339 351 5 355 343 353 50 160 294 242 278 316 333 321 289 267 290 325
144 159 172 171 178 186 208 200 197 195 175 176 198 207 210 215 211 202 202 224 218 258 259 244 249 264 310 273 354 358 350 350 63 334 297 317 308 314 290 311 327 354 346
111 161 178 188 181 198 214 206 200 187 192 198 184 208 225 221 223 196 200 238 235 250 234 219 237 234 261 225 196 288 318 306 326 345 302 290 310 343 326 353 360 351 350
99 123 122 89 33 266 222 218 192 189 190 206 211 200 206 206 211 237 212 228 256 261 307 268 232 220 192 203 204 209 144 36 349 353 323 310 320 315 342 350 351 344 341
77 135 131 186 219 342 349 321 208 186 187 192 206 223 194 75 41 9 323 249 224 252 273 284 15 11 43 199 177 201 176 163 275 285 300 304 314 336 3 333 329 312 315
191 153 146 201 200 195 305 297 297 71 190 178 213 50 83 73 12 18 331 291 232 226 294 311 83 47 23 19 5 269 180 184 265 254 253 277 273 279 310 327 325 341 323
169 142 150 171 182 202 131 295 320 279 221 173 91 97 77 39 359 351 310 258 219 167 97 41 69 46 24 351 337 4 355 299 241 234 268 278 289 272 297 303 281 270 277
159 151 143 129 140 125 135 143 183 270 39 110 99 97 91 33 358 343 308 251 85 81 75 85 94 72 29 5 358 26 62 56 8 59 205 268 268 290 264 273 292 290 278
158 130 139 123 112 100 108 117 131 110 71 82 96 97 81 33 357 17 28 82 100 82 68 68 87 74 14 11 53 35 39 15 334 332 298 294 289 281 244 15 354 355 335
80 117 123 125 119 122 109 84 92 99 111 107 100 96 85 56 22 38 37 59 84 100 80 70 55 75 39 24 44 46 32 345 347 343 342 340 341 0 71 340 329 353 322
74 94 107 117 119 129 118 113 103 94 101 102 97 89 91 71 42 45 37 56 39 127 96 64 35 17 33 23 27 346 13 325 326 329 340 16 31 20 15 19 24 32 1
43 72 74 83 87 122 127 122 133 131 122 117 109 79 56 78 58 45 46 56 30 77 68 40 334 347 0 347 357 312 346 328 351 29 44 24 19 16 4 9 30 13 8
63 43 53 52 41 28 53 144 142 124 127 148 157 140 164 137 73 48 35 36 40 75 12 330 337 19 13 41 16 45 42 43 42 42 20 11 4 355 9 10 4 359 347
92 79 72 73 54 43 48 48 55 42 31 34 178 148 119 66 41 39 26 19 24 32 3 341 10 84 65 53 43 48 54 44 47 39 29 17 13 17 18 360 11 7 3
117 117 105 99 95 81 62 39 85 67 56 51 35 65 123 106 62 57 53 36 2 352 328 39 53 53 59 49 43 45 49 43 49 36 26 7 9 13 20 17 19 8 25
150 145 153 134 123 141 134 114 61 82 59 57 67 91 35 98 132 68 45 23 352 353 50 68 80 74 60 52 53 47 33 35 26 30 19 4 14 31 12 9 19 13 1
114 112 150 172 160 170 173 151 136 76 63 69 64 73 64 116 46 23 15 2 25 53 48 71 67 65 60 57 48 46 31 28 17 29 30 31 22 27 25 18 11 5 360
32 71 109 135 141 165 168 153 145 147 146 94 55 56 29 24 20 351 359 356 31 45 64 69 65 57 58 53 48 36 25 28 36 39 33 30 29 22 19 22 13 2 346
12 324 359 8 79 124 143 147 167 146 144 142 126 51 7 337 328 304 324 70 96 71 67 66 67 66 61 56 49 31 36 36 37 40 31 34 27 24 14 4 3 358 354
93 80 75 43 70 98 19 136 142 152 157 160 156 143 129 50 20 40 61 71 78 76 71 70 61 63 62 55 42 41 34 39 39 45 34 29 14 15 5 351 357 343 333
200 201 145 24 19 232 322 256 244 168 136 138 122 116 144 143 276 151 103 81 83 89 94 95 84 76 67 54 43 42 31 34 44 40 29 8 7 356 336 339 343 326 319
211 190 189 203 235 226 180 110 86 126 125 137 148 146 149 120 134 110 101 101 102 103 99 100 93 89 79 68 66 65 53 58 48 33 6 350 341 340 339 334 323 331 328
237 185 191 197 207 238 188 178 115 4 124 140 153 145 151 129 126 117 117 112 109 119 114 111 104 96 89 78 60 71 86 76 50 30 6 359 344 336 329 325 325 320 323
258 222 184 198 186 185 182 167 160 64 132 163 153 157 161 156 145 137 128 122 115 111 103 99 113 120 96 78 70 105 107 92 54 12 357 320 322 327 325 320 319 312 301
231 245 202 185 197 188 185 181 202 192 168 144 161 158 166 154 141 140 142 140 136 130 152 150 117 117 117 125 113 114 86 41 22 320 289 295 296 308 316 298 288 294 300
208 246 254 219 186 179 169 177 189 184 170 167 158 165 155 144 141 143 146 134 137 146 142 136 143 149 155 127 117 122 89 319 311 311 307 283 278 284 290 291 295 293 289